Regional Weather Roundup
Issued by NWS

Home | Current Version | Previous Version | Graphics & Text | Print | Product List | Glossary On
Versions: 1 2 3 4 5 6 7 8 9 10 11 12 13 14 15 16 17 18 19 20 21 22 23 24 25 26 27 28 29 30 31 32 33 34 35 36 37 38 39 40 41 42 43 44 45 46 47 48 49 50
000
ASUS43 KBIS 030802
RWRND

NORTH DAKOTA REGIONAL WEATHER ROUNDUP
NATIONAL WEATHER SERVICE BISMARCK ND
300 AM CDT FRI JUL 03 2015

NOTE: "FAIR" INDICATES FEW OR NO CLOUDS BELOW 12,000 FEET WITH NO
SIGNIFICANT WEATHER AND/OR OBSTRUCTIONS TO VISIBILITY.


NDZ001>003-009>011-017-030900-
NORTHWEST NORTH DAKOTA

CITY           SKY/WX    TMP DP  RH WIND       PRES   REMARKS
WILLISTON      CLEAR     64  60  87 NE3       30.02S FOG
MINOT          CLOUDY    63  60  90 SW9       29.97S FOG
MINOT AFB      CLEAR     61  61 100 NW6       29.96S
$$

NDZ018>021-031>035-040>046-030900-
SOUTHWEST NORTH DAKOTA

CITY           SKY/WX    TMP DP  RH WIND       PRES   REMARKS
BISMARCK       CLOUDY    64  62  93 W3        29.99S FOG
DICKINSON      CLEAR     59  56  89 SW3       30.03F FOG
GARRISON         N/A     63  60  90 CALM      29.99S
HETTINGER ARPT CLEAR     56  55  97 CALM      30.06S FOG
$$

NDZ004>008-012>016-024-026-027-054-030900-
NORTHEAST NORTH DAKOTA

CITY           SKY/WX    TMP DP  RH WIND       PRES   REMARKS
GRAND FORKS    CLOUDY    63  62  97 NW5       29.89R FOG
GRND FRKS AFB  CLEAR     65  63  93 NW6       29.90S FOG
DEVILS LAKE    CLOUDY    64  61  88 N3        29.93R
$$

NDZ022-023-025-028>030-036>039-047>053-030900-
SOUTHEAST NORTH DAKOTA

CITY           SKY/WX    TMP DP  RH WIND       PRES   REMARKS
FARGO          CLEAR     62  58  86 S7        29.91F
JAMESTOWN      CLOUDY    63  59  87 W3        29.94S FOG
$$



USA.gov is the U.S. government's official web portal to all federal, state and local government web resources and services.